Location: ?????????
(54.7630°N, 39.4991°E)
Time: 08:38:18
(UTC+00:00)

Cosmos 1674 Rocket - Pass Details

Date: 14 April 2026
Orbit: 596 x 622 km, 82.5° (Epoch: 9 May)

Event Time Altitude Azimuth Distance (km) Brightness Sun altitude
Rises 18:40:28 0° 346° (NNW) 2,857 8.1 -17.2°
Reaches altitude 10° 18:42:42 10° 344° (NNW) 1,952 7.1 -17.5°
Maximum altitude 18:46:58 66° 262° (W) 660 3.7 -17.9°
Enters shadow 18:49:13 27° 187° (S) 1,170 4.6 -18.1°
